Location: Eymir
(36.7333°N, 29.7833°E)
Time: 17:56:28
(UTC+00:00)

BREEZE-M DEB (TANK) - Visible Passes

Search period start: 11 April 2026 00:00
Search period end: 21 April 2026 00:00
Orbit: 322 x 14400 km, 49.6° (Epoch: 10 April)

Date Brightness Start Highest point End Pass type
(mag) Time Alt. Az. Time Alt. Az. Time Alt. Az.
11 Apr 4.3 17:43:21 10° WNW 17:46:57 26° SW 17:48:31 15° S visible
18 Apr 10.2 03:29:10 10° SE 04:33:23 23° ESE 05:02:50 10° ENE visible
19 Apr 5.0 17:08:12 10° WNW 17:11:19 18° WSW 17:13:18 10° SSW visible
